Regional Weather Roundup
Issued by NWS Austin/San Antonio, TX

Home | Current Version | Previous Version | Text Only | Print | Product List | Glossary On
Versions: 1 2 3 4 5 6 7 8 9 10 11 12 13 14 15 16 17 18 19 20 21 22 23 24 25 26 27 28 29 30 31 32 33 34 35 36 37 38 39 40 41 42 43 44 45 46 47 48 49 50
000
ASUS44 KEWX 172010
RWREWX
SOUTH TEXAS REGIONAL WEATHER ROUNDUP
NATIONAL WEATHER SERVICE AUSTIN/SAN ANTONIO TX
200 PM CST SUN FEB 17 2019

NOTE: "FAIR" INDICATED FEW OR NO CLOUDS BELOW 12,000 FEET WITH NO
SIGNIFICANT WEATHER AND/OR OBSTRUCTIONS TO VISIBILITY.

* - THESE STATIONS ARE NOT NWS OR FAA STATIONS...AND ARE NOT SUBJECT
    TO NWS AND FAA QUALITY CONTROL.

TXZ171-172-183>190-172100-
TEXAS HILL COUNTRY AND EDWARDS PLATEAU

CITY           SKY/WX    TMP DP  RH WIND       PRES   REMARKS
JUNCTION       SUNNY     64  29  26 N12       29.91F
*LLANO         SUNNY     63  37  39 N10G16    29.96F
BURNET         SUNNY     59  37  44 NE12      29.94F
*HORSESHOE BAY SUNNY     60  38  44 N8        29.92F
*KERRVILLE     SUNNY     65  21  19 N9G20     29.89F
*FREDERICKSBRG SUNNY     62  31  31 N9G16     29.90S
*ROCKSPRINGS   SUNNY     64  21  19 E8G15     29.93F
*BOERNE STAGE  SUNNY     66  30  26 N12       29.87F
*CASTROVILLE   SUNNY     74  24  15 NE8G16    29.85F
HONDO          SUNNY     78  29  16 NE10G21   29.84F
*UVALDE        SUNNY     73  29  20 CALM      29.85F
DEL RIO        SUNNY     73  28  18 NW9       29.85F
LAUGHLIN AFB   SUNNY     74  25  16 N7        29.85F
CARRIZO SPRGS  SUNNY     77  30  18 N13       29.82F
*FAITH RANCH   SUNNY     77  28  16 N9G16     29.82F
$$

TXZ173-191>194-202-209-217>225-228-172100-
CENTRAL AND SOUTH CENTRAL TEXAS

CITY           SKY/WX    TMP DP  RH WIND       PRES   REMARKS
GEORGETOWN     SUNNY     57  41  55 N9        29.94F
AUSTIN/BERGSTM PTSUNNY   60  43  53 NE17      29.90F
AUSTIN/MABRY   SUNNY     61  38  42 N10G20    29.91F
*AUSTIN/EXEC   SUNNY     57  39  51 N22       29.91F
*LAGO VISTA    SUNNY     60  30  31 NE12G17   29.91F
SAN MARCOS     SUNNY     65  42  43 NE18      29.89F
NEW BRAUNFELS  SUNNY     68  37  32 N20G26    29.86F
RANDOLPH AFB   SUNNY     70  36  29 NE10G21   29.84F
PT SAN ANTONIO SUNNY     71  35  26 NE16      29.83F
SAN ANTONIO    PTSUNNY   70  34  26 N14G21    29.85F
STINSON FIELD  SUNNY     74  31  20 N13       29.82F
*LA GRANGE     MOSUNNY   60  45  59 N14       29.86F
*GIDDINGS      MOSUNNY   58  44  60 N13G22    29.91F
*GONZALES      MOSUNNY   63  47  55 NE13G23   29.86F
$$

TXZ163>164-176>182-195>201-210>213-226-227-235-172100-
SOUTHEAST TEXAS

CITY           SKY/WX    TMP DP  RH WIND       PRES   REMARKS
COLLEGE STN    MOSUNNY   56  44  64 N20       29.90F
*BRYAN         MOSUNNY   53  42  64 NW12G22   29.92F
*CALDWELL      MOSUNNY   55  40  57 N16G25    29.91F
*CROCKETT        N/A     54  43  66 N9G16     29.95S
*BRENHAM       CLOUDY    58  46  64 N13G23    29.89F
HUNTSVILLE     CLOUDY    53  44  71 N8        29.89F
CONROE         CLOUDY    57  48  72 N12G22    29.87S
HOUSTON BUSH   CLOUDY    59  52  77 N17       29.83F
HOUSTON HOBBY  CLOUDY    58  52  80 N13       29.82F
*HOUSTON SW AP CLOUDY    56  52  84 N14       29.84S
PEARLAND       LGT RAIN  57  56  96 N10       29.83S FOG
HOUSTON HOOKS  CLOUDY    58  49  72 N12G22    29.85F
ELLINGTON FLD  CLOUDY    55  54  94 N12       29.84S FOG
SUGAR LAND     CLOUDY    61  51  70 N15       29.83F
*HOUSTON EXEC  CLOUDY    59  50  72 N18       29.85F
*CLEVELAND MUN CLOUDY    55  50  83 N10G17    29.86F
*WHARTON       CLOUDY    58  49  73 N14G22    29.84S
*COLUMBUS      CLOUDY    61  44  54 N14G23    29.87S
*EAGLE LAKE    CLOUDY    60  48  65 N14G21    29.84
$$

TXZ214>216-236>238-172100-
THE UPPER TEXAS COAST

CITY           SKY/WX    TMP DP  RH WIND       PRES   REMARKS
*ORANGE        CLOUDY    61  60  97 N13G18    29.81R FOG
PORT ARTHUR    LGT RAIN  59  56  89 N17G25    29.79S FOG
GALVESTON      CLOUDY    59  56  89 N26G35    29.80R FOG
ANGLETON       LGT RAIN  58  56  93 N16       29.80F FOG
*BAY CITY      CLOUDY    60  56  85 N14G20    29.80F
PALACIOS       CLOUDY    62  55  77 N23       29.79F
$$

TXZ229>234-239>247-172100-
TEXAS COASTAL BEND AND RIO GRANDE PLAINS

CITY           SKY/WX    TMP DP  RH WIND       PRES   REMARKS
VICTORIA       SUNNY     67  49  52 N17G25    29.81F
*BEEVILLE      SUNNY     78  39  24 N15G21    29.80F
ROCKPORT       MOSUNNY   69  57  65 N15       29.78F
*PORT ARANSAS  PTSUNNY   67  58  73 N20G25    29.79F
*PORT LAVACA   PTSUNNY   67  54  62 N21G29    29.81F
*INGLESIDE     SUNNY     71  59  65 NE16      29.78F
CORPUS CHRISTI MOSUNNY   76  58  53 NE14G20   29.77F
CORPUS NAS     MOSUNNY   73  60  63 N16       29.77F
*ROBSTOWN      NOT AVBL
ALICE          SUNNY     78  43  28 N18G28    29.77F
KINGSVILLE NAS PTSUNNY   78  56  46 N15       29.76F
COTULLA        SUNNY     76  33  21 NE13G24   29.82F
LAREDO         SUNNY     79  42  26 N15G21    29.80F
$$

TXZ248>255-172100-
DEEP SOUTH TEXAS

CITY           SKY/WX    TMP DP  RH WIND       PRES   REMARKS
BROWNSVILLE    CLOUDY    70  68  93 N15G23    29.73F
PORT ISABEL    CLOUDY    67  63  87 N18G29    29.73F
HARLINGEN      CLOUDY    70  66  87 N16       29.74F
*HEBBRONVILLE  SUNNY     76  41  28 NE12G22   29.79F
MCALLEN        CLOUDY    77  66  68 N16       29.76F
*WESLACO       CLOUDY    72  65  77 N12G17    29.74
FALFURRIAS     MOSUNNY   78  58  49 N13       29.76F
EDINBURG       CLOUDY    74  65  71 N13       29.76F
*ZAPATA        FAIR      79  49  34 N14G21    29.79F
$$

TXZ213>215-236>238-242>244-246-247-251-254-255-172100-
CMAN STATIONS

STATION/POSITION TIME  TEMP    WIND        PRES    WAVE
                       AIR SEA DIR/SP/G            HT/PER
                 (UTC) (F)     (DEG/KT/KT) (MB)    (FT/S)
SABINE PASS      1936   65 65  350/ 12/ 17 1009.7
SEA RIM ST PARK  1900   67     350/ 11/ 13 1008.1
NORTH JETTY/GLS  1936   58 61  340/ 21/ 26 1008.0
EAGLE POINT      1936   57 63  360/ 15/ 22 1009.3
MORGANS POINT    1936   57 61  350/ 15/ 19 1009.7
PORT O`CONNOR    1936   59 63  350/ 19/ 24 1009.0
PORT ARANSAS     1900   63 61  360/ 17/ 20 1008.4
MALAQUITE BEACH  1936   67 62  340/ 19/ 21 1007.8
BAFFIN BAY       1936   65 67  360/ 15/ 19 1008.5
PORT ISABEL      1936   65 65  360/ 15/ 20 1006.8
$$




USA.gov is the U.S. government's official web portal to all federal, state and local government web resources and services.